Starlink 34395

operational
NORAD ID: 64668 Int'l Des: 2025-139 Owner: SPXS Country: US Constellation: starlink
LEOCIRCULAR

Über Starlink 34395

Beschreibung wird geladen...

Live-Position

3D-Globus wird geladen...

Nächste Überflüge

Höhenverlauf

Altitude vs Time

uPlot chart will show altitude changes over time

Zweizeiliger Elementsatz

1 64668U 25139E 26095.15708133 .00019407 00000-0 66694-3 0 9995
2 64668 53.1607 4.2958 0000764 86.0614 274.0474 15.30136321 44331
Epoch: 5. Apr. 2026 • Age: 15 hours

Aktueller Status

Höhe 491.1 km
Geschwindigkeit 7.62 km/s
Subsatellitenpunkt -45.21°S, 111.92°E
Startdatum 28. Juni 2025
Alter 0.7 years
Typ internet

Technische Details

Klassifizierung Payload
Masse 575.00 kg
Trockenmasse 530.00 kg
Gesamtmasse 575.00 kg
Länge 0.30 m
Durchmesser 4.10 m
Spannweite 29.00 m
Form Box + pan
Hersteller SPXS
Bus-Typ Starlink V2MO
Phasenstatus In Orbit
Besitzer/Staat SPXS/US

Große Konstellationen

Loading constellations...